GW1980 Weather Reports


Display with metric or nautical units.
time (UTC)temp
F
wind
direction
speed
MPH
gust
MPH
rain 1hr
in
rain 24hr
in
rain mn
in
humidity
%
barometer
mb
20260906221459 100 94 4.0 7.0 0.00 0.00 0.00 37 1010.9
20260906220004 101 106 5.0 12.0 0.00 0.00 0.00 37 1011.0
20260906214459 101 158 5.0 10.0 0.00 0.00 0.00 36 1011.2
20260906213002 100 136 4.0 9.0 0.00 0.00 0.00 36 1011.3
20260906210005 100 103 5.0 10.0 0.00 0.00 0.00 35 1011.6
20260906204459 100 91 5.0 9.0 0.00 0.00 0.00 38 1011.8
20260906203002 99 108 6.0 12.0 0.00 0.00 0.00 38 1011.9
20260906201459 99 180 4.0 11.0 0.00 0.00 0.00 37 1012.1
20260906200004 99 84 5.0 11.0 0.00 0.00 0.00 39 1012.2
20260906194459 100 195 5.0 10.0 0.00 0.00 0.00 39 1012.4
20260906193001 100 145 5.0 14.0 0.00 0.00 0.00 38 1012.6
20260906190005 98 127 6.0 11.0 0.00 0.00 0.00 41 1012.9
20260906184459 96 201 4.0 10.0 0.00 0.00 0.00 43 1013.1
20260906183001 99 72 3.0 8.0 0.00 0.00 0.00 39 1013.3
20260906181459 98 187 4.0 11.0 0.00 0.00 0.00 42 1013.5
20260906180004 97 132 3.0 8.0 0.00 0.00 0.00 44 1013.7
20260906174459 96 83 6.0 11.0 0.00 0.00 0.00 46 1013.9
20260906171459 95 162 6.0 12.0 0.00 0.00 0.00 48 1014.5
20260906170005 94 140 5.0 10.0 0.00 0.00 0.00 48 1014.7
20260906164459 94 345 3.0 6.0 0.00 0.00 0.00 51 1014.9
20260906163001 94 177 5.0 10.0 0.00 0.00 0.00 50 1015.0
20260906161459 94 200 1.0 4.0 0.00 0.00 0.00 52 1014.9
20260906160004 92 295 2.0 6.0 0.00 0.00 0.00 55 1014.8
20260906153002 90 235 0.0 3.0 0.00 0.00 0.00 59 1014.7
20260906150005 88 150 1.0 5.0 0.00 0.00 0.00 64 1014.6
20260906144458 88 181 2.0 5.0 0.00 0.00 0.00 64 1014.8
20260906143002 86 180 2.0 5.0 0.00 0.00 0.00 68 1014.9
20260906141459 84 187 1.0 4.0 0.00 0.00 0.00 71 1014.7
20260906140004 83 125 1.0 5.0 0.00 0.00 0.00 73 1014.6
20260906134459 82 180 2.0 4.0 0.00 0.00 0.00 76 1014.7
20260906133002 81 148 2.0 4.0 0.00 0.00 0.00 77 1014.6
20260906130004 78 102 2.0 3.0 0.00 0.00 0.00 82 1014.4
20260906124459 77 101 2.0 4.0 0.00 0.00 0.00 84 1014.1
20260906123002 76 103 1.0 3.0 0.00 0.00 0.00 85 1014.1
20260906121459 76 106 1.0 2.0 0.00 0.00 0.00 84 1014.0
20260906120004 76 135 2.0 4.0 0.00 0.00 0.00 84 1013.7
20260906114458 76 148 1.0 3.0 0.00 0.00 0.00 83 1013.6
20260906113001 76 103 1.0 3.0 0.00 0.00 0.00 83 1013.6
20260906111459 77 129 0.0 2.0 0.00 0.00 0.00 82 1013.5
20260906110003 77 132 1.0 2.0 0.00 0.00 0.00 82 1013.3
20260906104459 77 124 0.0 1.0 0.00 0.00 0.00 81 1013.1
20260906103001 77 119 1.0 2.0 0.00 0.00 0.00 81 1013.2
20260906101459 77 105 0.0 1.0 0.00 0.00 0.00 81 1013.0
20260906100004 77 105 0.0 1.0 0.00 0.00 0.00 80 1013.0
20260906094459 78 104 0.0 2.0 0.00 0.00 0.00 79 1012.8
20260906093002 78 155 0.0 1.0 0.00 0.00 0.00 79 1012.8
20260906090004 79 150 1.0 3.0 0.00 0.00 0.00 77 1012.4
20260906084459 79 150 0.0 0.0 0.00 0.00 0.00 76 1012.5
20260906083001 80 153 2.0 3.0 0.00 0.00 0.00 75 1012.6
20260906081459 80 150 2.0 4.0 0.00 0.00 0.00 75 1012.8
20260906080004 81 139 0.0 2.0 0.00 0.00 0.00 74 1012.9
20260906074458 81 153 1.0 3.0 0.00 0.00 0.00 73 1012.8
20260906071458 82 186 1.0 4.0 0.00 0.00 0.00 72 1013.0
20260906070004 83 186 3.0 6.0 0.00 0.00 0.00 71 1013.1
20260906064458 83 186 2.0 4.0 0.00 0.00 0.00 70 1013.3
20260906063001 84 181 3.0 6.0 0.00 0.00 0.00 71 1013.3
20260906060006 83 197 0.0 3.0 0.00 0.00 0.00 72 1013.4
20260906054500 84 166 1.0 4.0 0.00 0.00 0.00 71 1013.4
20260906053002 84 127 3.0 5.0 0.00 0.00 0.00 70 1013.5
20260906051500 84 158 2.0 5.0 0.00 0.00 0.00 69 1013.1
20260906050007 85 172 2.0 5.0 0.00 0.00 0.00 68 1013.2
20260906044500 85 172 1.0 5.0 0.00 0.00 0.00 67 1013.2
20260906043003 85 149 2.0 4.0 0.00 0.00 0.00 66 1013.2
20260906041459 86 136 3.0 6.0 0.00 0.00 0.00 64 1013.0
20260906040005 87 155 5.0 9.0 0.00 0.00 0.00 63 1013.0
20260906031459 88 135 4.0 8.0 0.00 0.00 0.00 56 1013.2
20260906024500 89 149 3.0 6.0 0.00 0.00 0.00 54 1012.7
20260906023002 90 144 5.0 10.0 0.00 0.00 0.00 52 1012.4
20260906021459 91 165 5.0 13.0 0.00 0.00 0.00 52 1012.1
20260906020007 91 174 6.0 11.0 0.00 0.00 0.00 51 1012.1
20260906014500 91 195 5.0 11.0 0.00 0.00 0.00 50 1011.7
20260906010005 95 162 2.0 5.0 0.00 0.00 0.00 41 1011.0
20260906004459 96 164 3.0 5.0 0.00 0.00 0.00 40 1011.0
20260906003002 97 141 4.0 7.0 0.00 0.00 0.00 38 1011.0
20260906000004 98 152 2.0 5.0 0.00 0.00 0.00 37 1010.8
20260905234500 98 184 4.0 7.0 0.00 0.00 0.00 36 1010.7
20260905233003 98 94 4.0 9.0 0.00 0.00 0.00 36 1010.8
20260905231459 99 135 5.0 10.0 0.00 0.00 0.00 35 1010.7
20260905230006 99 169 2.0 6.0 0.00 0.00 0.00 36 1010.7
20260905224459 99 97 4.0 7.0 0.00 0.00 0.00 35 1010.7
20260905223002 100 162 3.0 6.0 0.00 0.00 0.00 35 1010.6